timestamp,wind_dir_avg,wind_spd_avg,wind_spd_max_dir,wind_spd_gust,battery_voltage,lat,long
2023-02-27 00:04:00+00:00,331.0,7.78,330.0,10.17,12.33,47.59359,-54.27349
2023-02-27 00:14:00+00:00,325.0,9.56,327.0,11.54,12.25,47.59359,-54.27349
2023-02-27 00:24:00+00:00,327.0,9.04,324.0,10.87,12.25,47.59359,-54.27349
2023-02-27 00:34:00+00:00,327.0,9.47,344.0,12.12,12.25,47.59359,-54.27349
2023-02-27 00:44:00+00:00,331.0,8.51,326.0,10.1,12.25,47.59359,-54.27349
2023-02-27 00:54:00+00:00,325.0,7.88,333.0,9.57,12.25,47.59359,-54.27349
2023-02-27 01:04:00+00:00,325.0,8.56,317.0,10.41,12.25,47.59359,-54.27349
2023-02-27 01:14:00+00:00,333.0,8.94,338.0,11.88,12.17,47.59359,-54.27349
2023-02-27 01:24:00+00:00,327.0,8.46,331.0,9.73,12.17,47.59359,-54.27349
2023-02-27 01:34:00+00:00,322.0,8.29,320.0,10.27,12.17,47.59359,-54.27349
2023-02-27 01:44:00+00:00,323.0,9.48,310.0,11.95,12.17,47.59359,-54.27349
2023-02-27 01:54:00+00:00,323.0,9.01,318.0,10.41,12.17,47.59359,-54.27349
2023-02-27 02:04:00+00:00,324.0,8.03,325.0,10.31,12.17,47.59359,-54.27349
2023-02-27 02:14:00+00:00,326.0,9.49,329.0,10.92,12.09,47.59359,-54.27349
2023-02-27 02:24:00+00:00,322.0,8.35,312.0,10.15,12.09,47.59359,-54.27349
2023-02-27 02:34:00+00:00,319.0,8.46,326.0,10.15,12.09,47.59359,-54.27349
2023-02-27 02:44:00+00:00,329.0,8.86,329.0,12.05,12.09,47.59359,-54.27349
2023-02-27 02:54:00+00:00,322.0,9.02,323.0,10.31,12.09,47.59359,-54.27349
2023-02-27 03:04:00+00:00,326.0,9.09,328.0,10.28,12.09,47.59359,-54.27349
2023-02-27 03:14:00+00:00,317.0,9.62,307.0,13.73,12.09,47.59359,-54.27349
2023-02-27 03:24:00+00:00,325.0,9.29,323.0,11.44,12.09,47.59359,-54.27349
2023-02-27 03:34:00+00:00,323.0,8.6,332.0,9.62,12.09,47.59359,-54.27349
2023-02-27 03:44:00+00:00,328.0,9.34,328.0,11.45,12.09,47.59359,-54.27349
2023-02-27 03:54:00+00:00,327.0,8.62,325.0,10.07,12.09,47.59359,-54.27349
2023-02-27 04:04:00+00:00,316.0,8.18,310.0,9.21,12.09,47.59359,-54.27349
2023-02-27 04:14:01+00:00,314.0,8.83,301.0,13.71,12.01,47.59359,-54.27349
2023-02-27 04:24:01+00:00,315.0,8.88,312.0,11.33,12.01,47.59359,-54.27349
2023-02-27 04:34:01+00:00,302.0,8.51,292.0,13.55,12.01,47.59359,-54.27349
2023-02-27 04:44:01+00:00,308.0,9.39,297.0,13.84,12.01,47.59359,-54.27349
2023-02-27 04:54:01+00:00,304.0,8.73,300.0,14.17,12.01,47.59359,-54.27349
2023-02-27 05:04:01+00:00,315.0,9.29,303.0,13.84,12.01,47.59359,-54.27349
2023-02-27 05:14:00+00:00,306.0,8.78,287.0,14.02,11.93,47.59359,-54.27349
2023-02-27 05:24:00+00:00,312.0,8.18,323.0,10.45,11.93,47.59359,-54.27349
2023-02-27 05:34:00+00:00,315.0,8.21,311.0,10.32,11.93,47.59359,-54.27349
2023-02-27 05:44:00+00:00,316.0,7.47,321.0,10.15,11.93,47.59359,-54.27349
2023-02-27 05:54:00+00:00,311.0,7.34,316.0,9.34,11.93,47.59359,-54.27349
2023-02-27 06:04:00+00:00,311.0,7.44,315.0,9.27,11.93,47.59359,-54.27349
2023-02-27 06:14:01+00:00,319.0,7.88,316.0,9.7,11.93,47.59359,-54.27349
2023-02-27 06:24:01+00:00,314.0,7.41,308.0,9.34,11.93,47.59359,-54.27349
2023-02-27 06:34:01+00:00,315.0,8.57,309.0,10.02,11.93,47.59359,-54.27349
2023-02-27 06:44:01+00:00,312.0,7.85,312.0,9.17,11.93,47.59359,-54.27349
2023-02-27 06:54:01+00:00,309.0,6.27,304.0,7.96,11.93,47.59359,-54.27349
2023-02-27 07:04:01+00:00,310.0,7.74,300.0,11.23,11.93,47.59359,-54.27349
2023-02-27 07:14:00+00:00,310.0,6.2,302.0,7.66,11.93,47.59359,-54.27349
2023-02-27 07:24:00+00:00,313.0,6.0,312.0,7.42,11.93,47.59359,-54.27349
2023-02-27 07:34:00+00:00,310.0,5.59,316.0,7.66,11.93,47.59359,-54.27349
2023-02-27 07:44:00+00:00,309.0,5.64,312.0,7.35,11.93,47.59359,-54.27349
2023-02-27 07:54:00+00:00,319.0,6.5,310.0,7.66,11.93,47.59359,-54.27349
2023-02-27 08:04:00+00:00,304.0,5.65,309.0,7.42,11.93,47.59359,-54.27349
2023-02-27 08:14:00+00:00,302.0,6.64,296.0,9.17,11.86,47.59359,-54.27349
2023-02-27 08:24:00+00:00,298.0,7.22,297.0,8.62,11.86,47.59359,-54.27349
2023-02-27 08:34:00+00:00,308.0,7.43,305.0,8.91,11.86,47.59359,-54.27349
2023-02-27 08:44:00+00:00,309.0,5.99,301.0,8.02,11.86,47.59359,-54.27349
2023-02-27 08:54:00+00:00,308.0,5.91,303.0,7.38,11.86,47.59359,-54.27349
2023-02-27 09:04:00+00:00,300.0,6.55,305.0,7.94,11.86,47.59359,-54.27349
2023-02-27 09:14:01+00:00,307.0,7.1,301.0,10.74,11.86,47.59359,-54.27349
2023-02-27 09:24:01+00:00,316.0,7.78,312.0,9.58,11.86,47.59359,-54.27349
2023-02-27 09:34:01+00:00,315.0,7.19,312.0,9.61,11.86,47.59359,-54.27349
2023-02-27 09:44:01+00:00,315.0,6.73,305.0,8.33,11.86,47.59359,-54.27349
2023-02-27 09:54:01+00:00,314.0,7.74,310.0,9.12,11.86,47.59359,-54.27349
2023-02-27 10:04:01+00:00,321.0,6.93,320.0,9.08,11.86,47.59359,-54.27349
2023-02-27 10:14:00+00:00,314.0,7.24,311.0,8.58,11.86,47.59359,-54.27349
2023-02-27 10:24:00+00:00,316.0,6.49,323.0,8.24,11.86,47.59359,-54.27349
2023-02-27 10:34:00+00:00,315.0,6.95,324.0,8.52,11.86,47.59359,-54.27349
2023-02-27 10:44:00+00:00,309.0,7.12,310.0,8.99,11.86,47.59359,-54.27349
2023-02-27 10:54:00+00:00,312.0,6.56,308.0,7.92,11.86,47.59359,-54.27349
2023-02-27 11:04:00+00:00,311.0,7.36,312.0,8.74,11.86,47.59359,-54.27349
2023-02-27 11:14:00+00:00,308.0,7.02,302.0,8.2,13.76,47.59359,-54.27349
2023-02-27 11:24:00+00:00,303.0,5.61,299.0,7.16,13.76,47.59359,-54.27349
2023-02-27 11:34:00+00:00,310.0,6.27,313.0,7.62,13.76,47.59359,-54.27349
2023-02-27 11:44:00+00:00,310.0,5.75,306.0,6.83,13.76,47.59359,-54.27349
2023-02-27 11:54:00+00:00,309.0,5.87,303.0,7.47,13.76,47.59359,-54.27349
2023-02-27 12:04:00+00:00,300.0,4.87,297.0,7.08,13.76,47.59359,-54.27349
2023-02-27 12:14:00+00:00,310.0,4.3,311.0,4.98,14.48,47.59359,-54.27349
2023-02-27 12:24:00+00:00,292.0,4.46,304.0,5.89,14.48,47.59359,-54.27349
2023-02-27 12:34:00+00:00,304.0,4.99,302.0,5.74,14.48,47.59359,-54.27349
2023-02-27 12:44:00+00:00,301.0,4.29,304.0,5.35,14.48,47.59359,-54.27349
2023-02-27 12:54:00+00:00,305.0,4.29,306.0,4.96,14.48,47.59359,-54.27349
2023-02-27 13:04:00+00:00,292.0,4.97,288.0,6.08,14.48,47.59359,-54.27349
2023-02-27 13:14:00+00:00,288.0,3.32,300.0,4.0,14.4,47.59359,-54.27349
2023-02-27 13:24:00+00:00,302.0,4.87,294.0,5.75,14.4,47.59359,-54.27349
2023-02-27 13:34:00+00:00,303.0,3.71,302.0,4.45,14.4,47.59359,-54.27349
2023-02-27 13:44:00+00:00,316.0,5.0,323.0,7.56,14.4,47.59359,-54.27349
2023-02-27 13:54:00+00:00,310.0,4.64,324.0,5.53,14.4,47.59359,-54.27349
2023-02-27 14:04:00+00:00,298.0,5.46,303.0,6.45,14.4,47.59359,-54.27349
2023-02-27 14:14:00+00:00,292.0,3.39,291.0,4.29,13.84,47.59359,-54.27349
2023-02-27 14:24:00+00:00,315.0,6.12,319.0,7.72,13.84,47.59359,-54.27349
2023-02-27 14:34:00+00:00,313.0,6.12,316.0,7.26,13.84,47.59359,-54.27349
2023-02-27 14:44:00+00:00,301.0,7.38,310.0,8.84,13.84,47.59359,-54.27349
2023-02-27 14:54:00+00:00,306.0,6.9,304.0,8.07,13.84,47.59359,-54.27349
2023-02-27 15:04:00+00:00,298.0,6.89,298.0,9.24,13.84,47.59359,-54.27349
2023-02-27 15:14:00+00:00,305.0,6.96,299.0,9.59,14.0,47.59359,-54.27349
2023-02-27 15:24:00+00:00,298.0,6.6,302.0,9.29,14.0,47.59359,-54.27349
2023-02-27 15:34:00+00:00,329.0,7.16,329.0,9.03,14.0,47.59359,-54.27349
2023-02-27 15:44:00+00:00,313.0,5.96,311.0,7.47,14.0,47.59359,-54.27349
2023-02-27 15:54:00+00:00,297.0,8.01,297.0,10.88,14.0,47.59359,-54.27349
2023-02-27 16:04:00+00:00,311.0,6.49,300.0,9.7,14.0,47.59359,-54.27349
2023-02-27 16:14:00+00:00,297.0,6.55,287.0,8.19,14.64,47.59359,-54.27349
2023-02-27 16:24:00+00:00,311.0,6.24,325.0,9.48,14.64,47.59359,-54.27349
2023-02-27 16:34:00+00:00,316.0,7.92,322.0,8.92,14.64,47.59359,-54.27349
2023-02-27 16:44:00+00:00,308.0,5.25,309.0,6.15,14.64,47.59359,-54.27349
2023-02-27 16:54:00+00:00,294.0,8.74,303.0,10.19,14.64,47.59359,-54.27349
2023-02-27 17:04:00+00:00,314.0,7.65,312.0,9.99,14.64,47.59359,-54.27349
2023-02-27 17:14:00+00:00,307.0,5.82,308.0,7.06,13.68,47.59359,-54.27349
2023-02-27 17:24:00+00:00,325.0,5.88,324.0,7.48,13.68,47.59359,-54.27349
2023-02-27 17:34:00+00:00,312.0,7.66,304.0,9.48,13.68,47.59359,-54.27349
2023-02-27 17:44:00+00:00,320.0,5.59,326.0,6.78,13.68,47.59359,-54.27349
2023-02-27 17:54:00+00:00,310.0,6.26,307.0,7.45,13.68,47.59359,-54.27349
2023-02-27 18:04:00+00:00,320.0,5.47,324.0,7.45,13.68,47.59359,-54.27349
2023-02-27 18:14:00+00:00,318.0,5.68,304.0,8.35,13.92,47.59359,-54.27349
2023-02-27 18:24:00+00:00,340.0,5.66,348.0,6.73,13.92,47.59359,-54.27349
2023-02-27 18:34:00+00:00,337.0,6.23,337.0,7.46,13.92,47.59359,-54.27349
2023-02-27 18:44:00+00:00,302.0,5.66,299.0,7.63,13.92,47.59359,-54.27349
2023-02-27 18:54:00+00:00,316.0,5.04,324.0,7.22,13.92,47.59359,-54.27349
2023-02-27 19:04:00+00:00,308.0,6.35,305.0,8.68,13.92,47.59359,-54.27349
2023-02-27 19:14:00+00:00,321.0,7.06,311.0,8.96,14.48,47.59359,-54.27349
2023-02-27 19:24:00+00:00,317.0,7.03,302.0,10.08,14.48,47.59359,-54.27349
2023-02-27 19:34:00+00:00,320.0,6.67,326.0,8.04,14.48,47.59359,-54.27349
2023-02-27 19:44:00+00:00,314.0,6.05,318.0,7.11,14.48,47.59359,-54.27349
2023-02-27 19:54:00+00:00,313.0,5.66,297.0,7.8,14.48,47.59359,-54.27349
2023-02-27 20:04:00+00:00,313.0,6.44,303.0,8.66,14.48,47.59359,-54.27349
2023-02-27 20:14:00+00:00,319.0,6.71,320.0,7.44,13.6,47.59359,-54.27349
2023-02-27 20:24:00+00:00,326.0,5.87,329.0,6.97,13.6,47.59359,-54.27349
2023-02-27 20:34:00+00:00,313.0,5.18,317.0,6.36,13.6,47.59359,-54.27349
2023-02-27 20:44:00+00:00,314.0,5.31,321.0,6.34,13.6,47.59359,-54.27349
2023-02-27 20:54:00+00:00,323.0,6.1,327.0,7.06,13.6,47.59359,-54.27349
2023-02-27 21:04:00+00:00,316.0,5.13,325.0,6.42,13.6,47.59359,-54.27349
2023-02-27 21:14:00+00:00,308.0,4.65,315.0,5.63,13.21,47.59359,-54.27349
2023-02-27 21:24:00+00:00,312.0,5.0,319.0,5.79,13.21,47.59359,-54.27349
2023-02-27 21:34:00+00:00,311.0,5.26,306.0,6.71,13.21,47.59359,-54.27349
2023-02-27 21:44:00+00:00,308.0,4.53,306.0,5.44,13.21,47.59359,-54.27349
2023-02-27 21:54:00+00:00,318.0,4.33,324.0,5.57,13.21,47.59359,-54.27349
2023-02-27 22:04:00+00:00,318.0,5.39,325.0,6.04,13.21,47.59359,-54.27349
2023-02-27 22:14:00+00:00,322.0,4.95,320.0,5.88,12.49,47.59359,-54.27349
2023-02-27 22:24:00+00:00,313.0,4.98,310.0,5.87,12.49,47.59359,-54.27349
2023-02-27 22:34:00+00:00,325.0,4.9,324.0,5.78,12.49,47.59359,-54.27349
2023-02-27 22:44:00+00:00,329.0,4.54,322.0,5.47,12.49,47.59359,-54.27349
2023-02-27 22:54:00+00:00,328.0,4.56,323.0,5.66,12.49,47.59359,-54.27349
2023-02-27 23:04:00+00:00,325.0,4.24,329.0,5.18,12.49,47.59359,-54.27349
2023-02-27 23:14:00+00:00,322.0,4.5,316.0,5.18,12.33,47.59359,-54.27349
2023-02-27 23:24:00+00:00,313.0,5.05,315.0,5.6,12.33,47.59359,-54.27349
2023-02-27 23:34:00+00:00,317.0,5.21,318.0,5.62,12.33,47.59359,-54.27349
2023-02-27 23:44:00+00:00,311.0,5.37,319.0,6.29,12.33,47.59359,-54.27349
2023-02-27 23:54:00+00:00,320.0,5.67,308.0,7.3,12.33,47.59359,-54.27349
